Location: Newark
(33.6333°S, 78.8500°W)
Time: 20:01:47
(UTC+00:00)

Courier 1B - Pass Details

Date: 30 September 2019
Orbit: 962 x 1209 km, 28.3° (Epoch: 15 October)

Event Time Altitude Azimuth Distance (km) Brightness Sun altitude
Rises 21:56:11 0° 273° (W) 4,118 12.6 16.0°
Reaches altitude 10° 21:59:07 10° 277° (W) 3,152 13.3 15.4°
Maximum altitude 22:06:46 55° 352° (N) 1,401 8.7 13.8°
Drops below altitude 10° 22:14:10 10° 67° (ENE) 3,051 9.6 12.3°
Sets 22:16:58 0° 71° (ENE) 3,978 10.1 11.7°
